This is the latest recevied weather packets stored in our database for station/object SR2WXM. If no packets are shown the sender has not sent any weather packets the latest 10 day(s).
| Time | Temp. | Humidity | Pressure | Rain* | Wind** | Luminosity | Snow |
|---|---|---|---|---|---|---|---|
| 1777989603 | 20.56° C | 59% | 1005.7 hPa | 0 mm | - | - | - |
| 1777988703 | 20.56° C | 59% | 1005.7 hPa | 0 mm | - | - | - |
| 1777987803 | 20.56° C | 62% | 1005.7 hPa | 0 mm | - | - | - |
| 1777986903 | 20.56° C | 62% | 1005.7 hPa | 0 mm | - | - | - |
| 1777986002 | 20.56° C | 64% | 1005.7 hPa | 0 mm | - | - | - |
| 1777985101 | 20.56° C | 64% | 1006.1 hPa | 0 mm | - | - | - |
| 1777984202 | 20° C | 67% | 1006.4 hPa | 0 mm | - | - | - |
| 1777983303 | 20° C | 71% | 1006.4 hPa | 0 mm | - | - | - |
| 1777982402 | 20.56° C | 71% | 1006.4 hPa | 0 mm | - | - | - |
| 1777981502 | 18.89° C | 72% | 1006.4 hPa | 0 mm | - | - | - |
| 1777980603 | 18.89° C | 76% | 1006.4 hPa | 0 mm | - | - | - |
| 1777979704 | 20° C | 72% | 1006.4 hPa | 0 mm | - | - | - |
| 1777978802 | 18.89° C | 76% | 1006.7 hPa | 0 mm | - | - | - |
| 1777977903 | 17.78° C | 78% | 1006.7 hPa | 0 mm | - | - | - |
| 1777977003 | 17.78° C | 81% | 1006.7 hPa | 0 mm | - | - | - |
| 1777976102 | 17.78° C | 81% | 1006.7 hPa | 0 mm | - | - | - |
| 1777975202 | 17.78° C | 83% | 1007.4 hPa | 0 mm | - | - | - |
| 1777974303 | 17.78° C | 85% | 1007.7 hPa | 0 mm | - | - | - |
| 1777973403 | 16.67° C | 86% | 1007.7 hPa | 0 mm | - | - | - |
| 1777972503 | 16.67° C | 84% | 1007.7 hPa | 0 mm | - | - | - |
| 1777971602 | 16.67° C | 84% | 1007.7 hPa | 0 mm | - | - | - |
| 1777970703 | 16.67° C | 83% | 1007.7 hPa | 0 mm | - | - | - |
| 1777969802 | 16.67° C | 78% | 1007.7 hPa | 0 mm | - | - | - |
| 1777968903 | 16.67° C | 76% | 1007.7 hPa | 0 mm | - | - | - |
| 1777968004 | 16.67° C | 76% | 1008.1 hPa | 0 mm | - | - | - |
* Rain latest hour (hover to see other rain measurements)
** Current wind speed in m/s (hover to see current wind gust speed)